C/1998 M1 ( LINEAR )

Japanese version
Home page
Updated on January 30, 2011

---------------------------------------------------------------------

* Profile

Discovery Date June 16, 1998
Magnitude 17.5 mag
Discoverer Lincoln Laboratory Near-Earth Asteroid Research project

* Orbital Elements

Epoch 1998 Nov. 3.0 TT = JDT 2451120.5
T 1998 Oct. 28.12059 TT                                 MPC
q   3.1181186            (2000.0)            P               Q
z  +0.0023346      Peri.   19.40543     +0.07518141     +0.93811135
 +/-0.000006       Node   256.06756     -0.95473790     -0.03012882
e   0.9927206      Incl.   20.38476     -0.28779036     +0.34502080
From 182 observations 1998 May 3-1999 Nov. 10, mean residual 0".7.

* Finding Charts

* Magnitudes Graph

        m1 = 6.0 + 5 log d + 15.0 log r

---------------------------------------------------------------------

The orbital elements are published on M.P.E.C. 2011-A08.
The charts are made with StellaNavigator Ver.2.0 for Windows (AstroArts / ASCII).
The magnitudes graphs are made with Comet for Windows.

---------------------------------------------------------------------

Copyright(C) Seiichi Yoshida (comet@aerith.net). All rights reserved.